[[{"header":{"parameterUnit":"m.s-1","parameterCategory":1,"la1":30.2991,"la2":30.254,"lo1":-89.0895,"lo2":-89.0444,"dy":0.0017,"dx":0.0017,"nx":28,"ny":28,"refTime":"2025-07-31T21:00:00:Z","depth":0,"parameterNumber":2,"parameterNumberName":"U-component_of_WINDS"},"data":[0,0,0,0,0,0,0,0,0,0,0,0,0,0,0,0,0,0,0,0,0,0,0,0,0,0,0,0,0,0,0,0,0,0,0,0,0,0,0,0,0,0,0,0,0,0,0,0,0,0,0,0,0,0,0,0,0,0,3.7609,3.761,0,3.7743,3.7745,3.7746,3.7688,3.7685,3.7682,3.7679,3.7817,3.7824,3.7831,0,0,0,0,0,0,0,0,0,0,0,0,0,3.7302,3.7308,3.7609,3.761,3.7612,3.7743,3.7745,3.7746,3.7689,3.7685,3.7681,3.7677,3.7815,3.7823,3.7831,0,0,0,0,0,0,0,0,0,0,0,0,0,3.7436,3.731,3.7608,3.7599,3.76,3.7742,3.7745,3.7747,3.769,3.7685,3.768,3.7675,3.7813,3.7822,3.7832,3.7993,0,0,3.7863,3.7868,0,0,0,0,0,0,0,0,3.7428,3.7447,3.7599,3.76,3.7601,3.7694,3.7687,3.7829,3.7691,3.7656,3.7679,3.7673,3.778,3.7793,3.7829,3.7999,3.8005,3.7864,3.787,3.7875,3.7877,0,0,0,0,0,0,0,3.7419,3.7441,3.7662,3.7601,3.7602,3.7588,3.7602,3.7714,3.7744,3.7658,3.7654,3.7671,3.778,3.7819,3.7832,3.8007,3.7864,3.7873,3.7879,3.7883,3.8312,3.8317,0,0,0,0,0,0,3.741,3.7434,3.7658,3.7666,3.7501,3.7597,3.7613,3.7669,3.7742,3.7749,3.7675,3.7668,3.7804,3.782,3.7836,3.8026,3.7874,3.7884,3.789,3.8307,3.8313,3.8319,0,0,0,0,0,0,3.7403,3.743,3.7652,3.7549,3.7576,3.7608,3.7672,3.7674,3.7713,3.7755,3.776,3.771,3.7801,3.7822,3.7953,3.803,3.7888,3.7898,3.83,3.8308,3.8316,3.8408,0,0,0,0,0,0,3.7395,3.7428,3.749,3.7551,3.7582,3.7767,3.7677,3.768,3.7731,3.7722,3.7789,3.7795,3.7799,3.7938,3.7963,3.8041,3.7906,3.8293,3.8304,3.8313,3.8398,3.8418,3.8435,0,0,0,0,0,3.7384,3.7511,3.7493,3.7521,3.7659,3.7772,3.779,3.7791,3.7737,3.7799,3.7825,3.7793,3.8018,3.7952,3.798,3.8062,3.8289,3.8301,3.8313,3.839,3.8414,3.8434,0,0,0,0,0,0,3.746,3.7519,3.75,3.7651,3.7707,3.7762,3.784,3.7817,3.789,3.7879,3.7878,3.7894,3.8029,3.8059,3.7985,3.8219,3.8145,3.8163,3.8194,3.8218,3.8236,3.8224,3.7914,0,0,0,0,0,3.7494,3.7581,3.7628,3.7756,3.7785,3.7808,3.7857,3.7853,3.7911,3.7935,3.7971,3.8029,3.8112,3.8167,3.8246,3.8403,3.8415,3.8472,3.8491,3.8506,3.8521,3.8602,3.8628,3.8358,3.8358,3.8358,0,0,3.7566,3.7609,3.7664,3.7773,3.7815,3.7904,3.7828,3.7926,3.7992,3.795,3.8074,3.8103,3.8168,3.8311,3.8376,3.834,3.8598,3.8521,3.8533,3.854,3.8617,3.8643,3.8665,3.8366,3.8365,3.8364,0,0,3.774,3.7783,3.7893,3.7937,3.8002,3.8016,3.8043,3.8102,3.8118,3.8244,3.8213,3.8291,3.8436,3.8481,3.8524,3.8714,3.8686,3.874,3.8836,3.8916,3.8937,3.8956,3.902,3.9044,3.8756,3.8756,3.8756,0,3.7821,3.7954,3.7953,3.8052,3.81,3.8065,3.8175,3.8219,3.8307,3.834,3.8299,3.8477,3.8518,3.867,3.8716,3.8753,3.8782,3.8732,3.8934,3.8953,3.897,3.9032,3.9057,3.8762,3.8761,3.876,3.876,0,3.8048,3.814,3.8221,3.8306,3.8363,3.8468,3.8482,3.854,3.8531,3.8549,3.8675,3.8723,3.881,3.8846,3.8839,3.8997,3.8972,3.8933,3.8858,3.9002,3.9059,3.9084,3.877,3.8768,3.8766,3.8765,0,0,3.8274,3.8355,3.8385,3.8421,3.849,3.8561,3.8664,3.8747,3.8796,3.8858,3.8942,3.9064,3.9027,3.9075,3.9073,3.9143,3.9287,3.9095,3.9096,3.9126,3.946,3.9487,3.9515,3.927,3.9274,3.9278,3.9454,0,3.8452,3.863,3.8631,3.8796,3.8879,3.8847,3.8936,3.8987,3.9007,3.908,3.9102,3.9187,3.9133,3.9161,3.923,3.9255,3.9354,3.9243,3.9346,3.935,3.9328,3.9546,3.9575,3.9739,3.9477,3.9481,3.9483,0,3.8683,3.875,3.8922,3.8976,3.9011,3.9091,3.9166,3.9238,3.9295,3.9304,3.9357,3.9343,3.9446,3.937,3.951,3.9435,3.9477,3.9496,3.9503,3.951,3.9423,3.9556,3.9791,3.9814,3.952,3.9517,3.9514,0,3.8826,3.8961,3.908,3.9113,3.918,3.9236,3.9266,3.9318,3.9368,3.9434,3.9466,3.9544,3.9586,3.9647,3.9654,3.9598,3.9794,3.9719,3.9803,3.9803,3.9844,3.9841,4.0086,3.9877,3.9876,3.9876,3.9875,0,3.9023,3.9129,3.9145,3.9218,3.9335,3.9335,3.9451,3.9477,3.9523,3.96,3.9578,3.965,3.9657,3.9732,3.9738,3.9852,3.9872,3.9881,3.9881,3.9881,3.988,3.9907,3.9895,3.9882,3.9881,3.988,3.9878,0,3.9202,3.9218,3.9345,3.9397,3.9413,3.9496,3.954,3.961,3.9626,3.9724,3.9747,3.9773,3.9859,3.9873,3.9975,3.9979,4.0115,4.0105,4.0095,4.0092,4.0174,4.0165,4.0443,4.0478,4.0249,4.0251,4.0253,0,3.9325,3.9405,3.9465,3.9515,3.9548,3.9628,3.9678,3.9681,3.9734,3.9803,3.9864,3.9948,4.0014,4.0154,4.0182,4.0259,4.0249,4.0341,4.026,4.0257,4.0246,4.024,4.0246,4.0356,4.0358,4.036,4.0362,0,3.9541,3.9543,3.9616,3.969,3.975,3.9809,3.9865,3.9907,3.9917,3.9977,4.0064,4.0116,4.0219,4.0302,4.0378,4.0409,4.0387,4.0387,4.041,4.041,4.0399,4.0403,4.0134,4.038,4.0378,4.0377,4.0376,4.0375,3.9693,3.9762,3.9814,3.9894,3.9936,3.9988,4.0055,4.0079,4.0152,4.0235,4.0233,4.0328,4.0381,4.0481,4.0517,4.059,4.056,4.0595,4.0603,4.061,4.0616,4.039,4.0605,4.0604,4.0604,4.0603,4.0603,0,3.9904,3.9936,4.001,4.0088,4.0151,4.0124,4.0184,4.0238,4.0322,4.0373,4.0439,4.0538,4.0617,4.0651,4.0729,4.0781,4.0773,4.0801,4.0796,4.0803,4.064,4.0611,4.0807,4.0807,4.0806,4.0806,4.0806,4.0806,4.0022,4.0135,4.0144,4.0277,4.0308,4.04,4.0436,4.0483,4.0524,4.0635,4.07,4.0721,4.0765,4.0846,4.0917,4.0925,4.0953,4.0985,4.0988,4.0835,4.0815,4.0795,4.0767,4.0992,4.0993,4.1144,4.1146,4.1147]},{"header":{"parameterUnit":"m.s-1","parameterCategory":1,"la1":30.2991,"la2":30.254,"lo1":-89.0895,"lo2":-89.0444,"dy":0.0017,"dx":0.0017,"nx":28,"ny":28,"refTime":"2025-07-31T21:00:00:Z","depth":0,"parameterNumber":3,"parameterNumberName":"V-component_of_WINDS"},"data":[0,0,0,0,0,0,0,0,0,0,0,0,0,0,0,0,0,0,0,0,0,0,0,0,0,0,0,0,0,0,0,0,0,0,0,0,0,0,0,0,0,0,0,0,0,0,0,0,0,0,0,0,0,0,0,0,0,0,3.1058,3.106,0,3.1207,3.1208,3.121,3.1198,3.1196,3.1194,3.1191,3.1345,3.1351,3.1357,0,0,0,0,0,0,0,0,0,0,0,0,0,3.0764,3.077,3.1058,3.106,3.1062,3.1206,3.1208,3.121,3.1198,3.1196,3.1193,3.119,3.1343,3.135,3.1357,0,0,0,0,0,0,0,0,0,0,0,0,0,3.09,3.0771,3.1058,3.1073,3.1076,3.1206,3.1209,3.1211,3.1199,3.1196,3.1192,3.1189,3.134,3.1349,3.1359,3.1483,0,0,3.1387,3.1391,0,0,0,0,0,0,0,0,3.0892,3.0911,3.1069,3.1072,3.1076,3.118,3.1161,3.1302,3.12,3.1152,3.1191,3.1187,3.1293,3.1306,3.1341,3.149,3.1497,3.1388,3.1393,3.1397,3.14,0,0,0,0,0,0,0,3.0883,3.0904,3.1117,3.1071,3.1076,3.1073,3.1088,3.1188,3.124,3.1156,3.1156,3.1173,3.1294,3.1332,3.1345,3.1499,3.1387,3.1396,3.1401,3.1405,3.1756,3.176,0,0,0,0,0,0,3.087,3.0897,3.1112,3.1121,3.0974,3.1081,3.1098,3.115,3.1239,3.1249,3.1176,3.1172,3.1318,3.1334,3.135,3.1501,3.1397,3.1406,3.1411,3.1752,3.1757,3.1761,0,0,0,0,0,0,3.0864,3.0889,3.1106,3.1009,3.1036,3.1089,3.1148,3.1155,3.1193,3.1254,3.1263,3.1206,3.1316,3.1337,3.145,3.1506,3.141,3.1418,3.1748,3.1754,3.1759,3.1803,0,0,0,0,0,0,3.0855,3.0887,3.0935,3.101,3.1042,3.1204,3.1151,3.116,3.1209,3.1205,3.1284,3.1293,3.1315,3.1436,3.1459,3.1517,3.1426,3.1743,3.1751,3.1757,3.1797,3.181,3.1821,0,0,0,0,0,3.0845,3.0942,3.0938,3.0964,3.1103,3.1207,3.1225,3.1247,3.1213,3.1262,3.1301,3.1291,3.1496,3.1448,3.1473,3.1535,3.174,3.1749,3.1757,3.1792,3.1807,3.182,0,0,0,0,0,0,3.0874,3.0953,3.0948,3.1073,3.1133,3.1204,3.1267,3.1263,3.1335,3.1328,3.1353,3.1371,3.1484,3.1521,3.1466,3.1659,3.1613,3.1627,3.1631,3.1646,3.1658,3.1647,3.1433,0,0,0,0,0,3.0894,3.0972,3.1037,3.1141,3.1171,3.1214,3.126,3.1272,3.1335,3.1361,3.1408,3.147,3.1548,3.1599,3.1675,3.1802,3.1818,3.1857,3.1869,3.1878,3.189,3.1959,3.1976,3.1789,3.1789,3.1789,0,0,3.0938,3.0991,3.1039,3.1148,3.1196,3.1275,3.1235,3.1322,3.1381,3.1374,3.1483,3.1519,3.1591,3.1711,3.1766,3.1745,3.1945,3.1889,3.1896,3.1903,3.1969,3.1987,3.2002,3.1795,3.1794,3.1793,0,0,3.1059,3.1107,3.1198,3.1246,3.1319,3.1346,3.1368,3.144,3.1464,3.1573,3.1569,3.164,3.1775,3.1825,3.1868,3.2006,3.1999,3.203,3.2091,3.2158,3.2172,3.2185,3.2233,3.2251,3.2041,3.2041,3.2041,0,3.1104,3.1224,3.1245,3.1332,3.1379,3.1376,3.1468,3.1514,3.1608,3.1641,3.1616,3.1783,3.1831,3.1962,3.1995,3.2031,3.2056,3.2021,3.2168,3.2182,3.2195,3.2241,3.2259,3.2044,3.2044,3.2044,3.2043,0,3.1276,3.1359,3.1423,3.1513,3.1568,3.1657,3.1691,3.1744,3.1751,3.1781,3.1891,3.1948,3.2034,3.2066,3.2075,3.2198,3.2183,3.2163,3.2117,3.2215,3.2259,3.2277,3.2049,3.2048,3.2047,3.2046,0,0,3.142,3.1518,3.1542,3.1581,3.1661,3.1725,3.1814,3.1897,3.1941,3.2006,3.208,3.2193,3.2175,3.2224,3.2237,3.2296,3.2399,3.2268,3.227,3.229,3.2538,3.2552,3.2572,3.2395,3.2399,3.2402,3.2531,0,3.1547,3.1703,3.1724,3.1862,3.1938,3.1935,3.2012,3.2068,3.2098,3.2167,3.22,3.228,3.225,3.2279,3.2337,3.2374,3.2449,3.2365,3.2464,3.2467,3.2446,3.2595,3.2611,3.2731,3.2549,3.2552,3.2554,0,3.1717,3.1785,3.193,3.1998,3.203,3.2099,3.2176,3.2242,3.2306,3.2324,3.2378,3.2383,3.2474,3.2424,3.2549,3.2492,3.2533,3.2558,3.2563,3.2573,3.2516,3.2608,3.277,3.2787,3.2581,3.2579,3.2577,0,3.1806,3.1934,3.2037,3.2071,3.2153,3.2201,3.2237,3.2297,3.2346,3.2413,3.2444,3.2522,3.2565,3.2624,3.265,3.2612,3.2773,3.2726,3.279,3.2789,3.2824,3.2821,3.2994,3.2852,3.2852,3.2851,3.2851,0,3.1946,3.2035,3.2078,3.2141,3.224,3.2263,3.236,3.2394,3.2448,3.2518,3.252,3.2585,3.2616,3.2686,3.2707,3.2807,3.2826,3.2843,3.2847,3.2842,3.284,3.2869,3.2862,3.2856,3.2855,3.2854,3.2853,0,3.2062,3.2095,3.2206,3.2273,3.2292,3.2362,3.242,3.2481,3.2509,3.2597,3.2619,3.2665,3.2747,3.2779,3.288,3.2894,3.3008,3.3007,3.2987,3.2988,3.3049,3.3042,3.3246,3.3273,3.3114,3.3116,3.3117,0,3.2149,3.2217,3.2291,3.2337,3.2375,3.245,3.2499,3.2523,3.2574,3.2651,3.2703,3.2784,3.2851,3.2983,3.3025,3.3101,3.3101,3.3167,3.3113,3.3105,3.3101,3.3096,3.3102,3.3177,3.3178,3.318,3.3181,0,3.23,3.2312,3.2382,3.2457,3.2515,3.2576,3.2635,3.2673,3.2706,3.2763,3.2847,3.2898,3.3,3.3081,3.316,3.3197,3.3195,3.3197,3.3216,3.3211,3.3196,3.3204,3.3013,3.3193,3.3191,3.3191,3.319,3.3189,3.2403,3.2463,3.2523,3.2601,3.2648,3.2702,3.2763,3.2798,3.2868,3.2953,3.2963,3.3053,3.3113,3.3219,3.3259,3.3329,3.3312,3.3339,3.3346,3.3352,3.3355,3.3186,3.3344,3.3343,3.3343,3.3343,3.3343,0,3.2553,3.2591,3.2662,3.2744,3.2805,3.2796,3.2861,3.2912,3.2991,3.3047,3.3112,3.3208,3.3286,3.3333,3.3412,3.3459,3.3459,3.3478,3.3475,3.3483,3.3367,3.3343,3.3476,3.3476,3.3476,3.3476,3.3476,3.3476,3.2638,3.2737,3.2757,3.2879,3.2917,3.3004,3.3042,3.3092,3.3137,3.3243,3.3308,3.3338,3.3391,3.3472,3.3543,3.3555,3.3584,3.3604,3.3614,3.3505,3.3491,3.3478,3.3455,3.361,3.361,3.3724,3.3725,3.3726]}]]